Wetterdaten: Dienstag, 31.12.2013
Datum Zeit Temperatur Luftfeuchte Luftdruck Regen Wind Richtung Richtung Taupunkt Windchill Windben
31.12.2013 00:00 -6,5 C 88 % 1023,8 hPa 0,0 l/m 0,2 km/h (0 Bft) O-NO 67 -8,1 C -6,7 C 0,0 km/h (0 Bft)
31.12.2013 00:05 -6,6 C 88 % 1023,8 hPa 0,0 l/m 0,2 km/h (0 Bft) O-NO 67 -8,2 C -6,7 C 0,0 km/h (0 Bft)
31.12.2013 00:10 -6,2 C 88 % 1023,8 hPa 0,0 l/m 0,5 km/h (0 Bft) O-NO 67 -7,9 C -6,5 C 0,0 km/h (0 Bft)
31.12.2013 00:15 -6,3 C 88 % 1023,8 hPa 0,0 l/m 0,6 km/h (0 Bft) O-NO 67 -8,0 C -6,5 C 3,1 km/h (1 Bft)
31.12.2013 00:20 -6,1 C 88 % 1023,8 hPa 0,0 l/m 0,6 km/h (0 Bft) O-NO 67 -7,8 C -6,5 C 0,0 km/h (0 Bft)
31.12.2013 00:25 -5,9 C 88 % 1023,6 hPa 0,0 l/m 0,8 km/h (0 Bft) O-NO 67 -7,6 C -6,5 C 1,6 km/h (1 Bft)
31.12.2013 00:30 -6,0 C 88 % 1023,6 hPa 0,0 l/m 0,6 km/h (0 Bft) O-NO 67 -7,7 C -6,5 C 4,5 km/h (1 Bft)
31.12.2013 00:35 -5,4 C 89 % 1023,6 hPa 0,0 l/m 1,3 km/h (1 Bft) O-NO 67 -6,9 C -6,3 C 1,6 km/h (1 Bft)
31.12.2013 00:40 -5,8 C 89 % 1023,6 hPa 0,0 l/m 1,3 km/h (1 Bft) O-NO 67 -7,3 C -6,2 C 0,0 km/h (0 Bft)
31.12.2013 00:45 -6,6 C 88 % 1023,4 hPa 0,0 l/m 0,2 km/h (0 Bft) O-NO 67 -8,2 C -6,4 C 0,0 km/h (0 Bft)
31.12.2013 00:50 -6,3 C 88 % 1023,4 hPa 0,0 l/m 0,5 km/h (0 Bft) O-NO 67 -8,0 C -6,7 C 1,9 km/h (1 Bft)
31.12.2013 00:55 -6,1 C 88 % 1023,4 hPa 0,0 l/m 1,1 km/h (1 Bft) O-NO 67 -7,8 C -6,8 C 4,5 km/h (1 Bft)
31.12.2013 01:00 -6,3 C 88 % 1023,4 hPa 0,0 l/m 1,3 km/h (1 Bft) O-NO 67 -8,0 C -6,5 C 3,5 km/h (1 Bft)
31.12.2013 01:05 -6,6 C 88 % 1023,4 hPa 0,0 l/m 1,1 km/h (1 Bft) O-NO 67 -8,2 C -6,8 C 0,0 km/h (0 Bft)
31.12.2013 01:10 -6,6 C 88 % 1023,4 hPa 0,0 l/m 0,3 km/h (0 Bft) O-NO 67 -8,2 C -6,9 C 0,0 km/h (0 Bft)
31.12.2013 01:15 -6,7 C 88 % 1023,4 hPa 0,0 l/m 0,0 km/h (0 Bft) O-NO 67 -8,3 C -6,9 C 0,0 km/h (0 Bft)
31.12.2013 01:20 -6,9 C 88 % 1023,4 hPa 0,0 l/m 0,0 km/h (0 Bft) O-NO 67 -8,5 C -7,0 C 0,0 km/h (0 Bft)
31.12.2013 01:25 -6,9 C 88 % 1023,2 hPa 0,0 l/m 0,0 km/h (0 Bft) O-NO 67 -8,5 C -7,2 C 0,0 km/h (0 Bft)
31.12.2013 01:30 -7,1 C 88 % 1023,2 hPa 0,0 l/m 0,0 km/h (0 Bft) O-NO 67 -8,7 C -7,3 C 0,0 km/h (0 Bft)
31.12.2013 01:35 -6,9 C 88 % 1023,2 hPa 0,0 l/m 0,0 km/h (0 Bft) O-NO 67 -8,5 C -7,4 C 0,0 km/h (0 Bft)
31.12.2013 01:40 -7,0 C 88 % 1023,2 hPa 0,0 l/m 0,2 km/h (0 Bft) O-NO 67 -8,6 C -7,4 C 3,5 km/h (1 Bft)
31.12.2013 01:45 -6,8 C 88 % 1023,0 hPa 0,0 l/m 0,6 km/h (0 Bft) O-NO 67 -8,4 C -7,4 C 0,0 km/h (0 Bft)
31.12.2013 01:50 -7,0 C 88 % 1023,0 hPa 0,0 l/m 0,3 km/h (0 Bft) O-NO 67 -8,6 C -7,5 C 0,0 km/h (0 Bft)
31.12.2013 01:55 -6,9 C 88 % 1023,0 hPa 0,0 l/m 0,0 km/h (0 Bft) O-NO 67 -8,5 C -7,6 C 0,0 km/h (0 Bft)
31.12.2013 02:00 -7,0 C 87 % 1023,0 hPa 0,0 l/m 0,0 km/h (0 Bft) O-NO 67 -8,8 C -7,6 C 0,0 km/h (0 Bft)
31.12.2013 02:05 -7,3 C 87 % 1023,1 hPa 0,0 l/m 0,0 km/h (0 Bft) O-NO 67 -9,1 C -7,7 C 0,0 km/h (0 Bft)
31.12.2013 02:10 -7,1 C 87 % 1023,1 hPa 0,0 l/m 0,0 km/h (0 Bft) O-NO 67 -8,9 C -7,7 C 0,0 km/h (0 Bft)
31.12.2013 02:15 -7,2 C 87 % 1023,1 hPa 0,0 l/m 0,0 km/h (0 Bft) O-NO 67 -9,0 C -7,6 C 0,0 km/h (0 Bft)
31.12.2013 02:20 -7,4 C 87 % 1023,1 hPa 0,0 l/m 0,0 km/h (0 Bft) O-NO 67 -9,2 C -7,6 C 0,0 km/h (0 Bft)
31.12.2013 02:25 -7,2 C 87 % 1023,1 hPa 0,0 l/m 0,0 km/h (0 Bft) O-NO 67 -9,0 C -7,6 C 0,0 km/h (0 Bft)
31.12.2013 02:30 -7,4 C 87 % 1023,1 hPa 0,0 l/m 0,3 km/h (0 Bft) O-NO 67 -9,2 C -7,6 C 5,5 km/h (1 Bft)
31.12.2013 02:35 -7,2 C 87 % 1023,1 hPa 0,0 l/m 0,5 km/h (0 Bft) O-NO 67 -9,0 C -7,5 C 3,1 km/h (1 Bft)
31.12.2013 02:40 -6,8 C 88 % 1023,1 hPa 0,0 l/m 0,6 km/h (0 Bft) O-NO 67 -8,4 C -7,5 C 0,0 km/h (0 Bft)
31.12.2013 02:45 -6,8 C 88 % 1023,0 hPa 0,0 l/m 0,3 km/h (0 Bft) O-NO 67 -8,4 C -7,4 C 0,0 km/h (0 Bft)
31.12.2013 02:50 -7,2 C 87 % 1023,0 hPa 0,0 l/m 0,2 km/h (0 Bft) O-NO 67 -9,0 C -7,3 C 0,0 km/h (0 Bft)
31.12.2013 02:55 -7,2 C 87 % 1023,0 hPa 0,0 l/m 0,2 km/h (0 Bft) O-NO 67 -9,0 C -7,4 C 3,9 km/h (1 Bft)
31.12.2013 03:00 -7,5 C 87 % 1023,0 hPa 0,0 l/m 0,2 km/h (0 Bft) O-NO 67 -9,3 C -7,4 C 0,0 km/h (0 Bft)
31.12.2013 03:05 -7,6 C 87 % 1022,9 hPa 0,0 l/m 0,2 km/h (0 Bft) O-NO 67 -9,4 C -7,6 C 0,0 km/h (0 Bft)
31.12.2013 03:10 -7,6 C 87 % 1022,9 hPa 0,0 l/m 0,0 km/h (0 Bft) O-NO 67 -9,4 C -7,6 C 0,0 km/h (0 Bft)
31.12.2013 03:15 -7,7 C 87 % 1022,9 hPa 0,0 l/m 0,0 km/h (0 Bft) O-NO 67 -9,5 C -7,7 C 0,0 km/h (0 Bft)
31.12.2013 03:20 -7,2 C 87 % 1022,9 hPa 0,0 l/m 0,2 km/h (0 Bft) O-NO 67 -9,0 C -7,8 C 0,0 km/h (0 Bft)
31.12.2013 03:25 -7,2 C 87 % 1022,8 hPa 0,0 l/m 0,2 km/h (0 Bft) O-NO 67 -9,0 C -7,6 C 0,0 km/h (0 Bft)
31.12.2013 03:30 -7,1 C 87 % 1022,8 hPa 0,0 l/m 0,3 km/h (0 Bft) O-NO 67 -8,9 C -7,5 C 0,0 km/h (0 Bft)
31.12.2013 03:35 -7,1 C 87 % 1022,8 hPa 0,0 l/m 0,3 km/h (0 Bft) O-NO 67 -8,9 C -7,4 C 0,0 km/h (0 Bft)
31.12.2013 03:40 -7,4 C 87 % 1022,8 hPa 0,0 l/m 0,2 km/h (0 Bft) O-NO 67 -9,2 C -7,6 C 0,0 km/h (0 Bft)
31.12.2013 03:45 -7,4 C 87 % 1022,6 hPa 0,0 l/m 0,2 km/h (0 Bft) O-NO 67 -9,2 C -7,6 C 0,0 km/h (0 Bft)
31.12.2013 03:50 -7,4 C 87 % 1022,6 hPa 0,0 l/m 0,0 km/h (0 Bft) O-NO 67 -9,2 C -7,6 C 0,0 km/h (0 Bft)
31.12.2013 03:55 -7,6 C 87 % 1022,6 hPa 0,0 l/m 0,0 km/h (0 Bft) O-NO 67 -9,4 C -7,7 C 0,0 km/h (0 Bft)
31.12.2013 04:00 -7,2 C 87 % 1022,6 hPa 0,0 l/m 0,0 km/h (0 Bft) O-NO 67 -9,0 C -7,7 C 1,8 km/h (1 Bft)
31.12.2013 04:05 -7,3 C 87 % 1022,4 hPa 0,0 l/m 0,2 km/h (0 Bft) O-NO 67 -9,1 C -7,6 C 0,0 km/h (0 Bft)
31.12.2013 04:10 -7,3 C 87 % 1022,4 hPa 0,0 l/m 0,3 km/h (0 Bft) O-NO 67 -9,1 C -7,4 C 0,0 km/h (0 Bft)
31.12.2013 04:15 -7,2 C 87 % 1022,4 hPa 0,0 l/m 0,8 km/h (0 Bft) O-NO 67 -9,0 C -7,3 C 3,4 km/h (1 Bft)
31.12.2013 04:20 -7,1 C 87 % 1022,4 hPa 0,0 l/m 1,4 km/h (1 Bft) O-NO 67 -8,9 C -7,3 C 2,3 km/h (1 Bft)
31.12.2013 04:25 -7,1 C 87 % 1022,2 hPa 0,0 l/m 1,0 km/h (0 Bft) O-NO 67 -8,9 C -7,2 C 2,6 km/h (1 Bft)
31.12.2013 04:30 -6,9 C 87 % 1022,2 hPa 0,0 l/m 0,2 km/h (0 Bft) O-NO 67 -8,7 C -7,3 C 0,0 km/h (0 Bft)
31.12.2013 04:35 -7,0 C 87 % 1022,2 hPa 0,0 l/m 0,2 km/h (0 Bft) O-NO 67 -8,8 C -7,2 C 0,0 km/h (0 Bft)
31.12.2013 04:40 -7,1 C 87 % 1022,2 hPa 0,0 l/m 0,0 km/h (0 Bft) O-NO 67 -8,9 C -7,3 C 0,0 km/h (0 Bft)
31.12.2013 04:45 -7,1 C 87 % 1022,1 hPa 0,0 l/m 0,0 km/h (0 Bft) O-NO 67 -8,9 C -7,3 C 0,0 km/h (0 Bft)
31.12.2013 04:50 -6,8 C 87 % 1022,1 hPa 0,0 l/m 1,1 km/h (1 Bft) O-NO 67 -8,6 C -7,2 C 3,5 km/h (1 Bft)
31.12.2013 04:55 -5,9 C 88 % 1022,1 hPa 0,0 l/m 2,7 km/h (1 Bft) O-NO 67 -7,6 C -7,6 C 4,7 km/h (1 Bft)
31.12.2013 05:00 -6,6 C 87 % 1022,1 hPa 0,0 l/m 2,9 km/h (1 Bft) O-NO 67 -8,4 C -7,2 C 6,4 km/h (2 Bft)
31.12.2013 05:05 -7,0 C 87 % 1021,9 hPa 0,0 l/m 1,4 km/h (1 Bft) O-NO 67 -8,8 C -6,5 C 0,0 km/h (0 Bft)
31.12.2013 05:10 -7,1 C 87 % 1021,9 hPa 0,0 l/m 0,2 km/h (0 Bft) O-NO 67 -8,9 C -6,9 C 0,0 km/h (0 Bft)
31.12.2013 05:15 -7,0 C 87 % 1021,9 hPa 0,0 l/m 0,0 km/h (0 Bft) O-NO 67 -8,8 C -7,1 C 1,9 km/h (1 Bft)
31.12.2013 05:20 -6,9 C 87 % 1021,9 hPa 0,0 l/m 0,0 km/h (0 Bft) O-NO 67 -8,7 C -7,2 C 0,0 km/h (0 Bft)
31.12.2013 05:25 -7,2 C 87 % 1021,9 hPa 0,0 l/m 0,2 km/h (0 Bft) O-NO 67 -9,0 C -7,2 C 0,0 km/h (0 Bft)
31.12.2013 05:30 -7,2 C 87 % 1021,9 hPa 0,0 l/m 0,0 km/h (0 Bft) O-NO 67 -9,0 C -7,3 C 0,0 km/h (0 Bft)
31.12.2013 05:35 -6,8 C 87 % 1021,9 hPa 0,0 l/m 0,0 km/h (0 Bft) O-NO 67 -8,6 C -7,3 C 0,0 km/h (0 Bft)
31.12.2013 05:40 -6,9 C 87 % 1021,9 hPa 0,0 l/m 0,2 km/h (0 Bft) O-NO 67 -8,7 C -7,2 C 0,0 km/h (0 Bft)
31.12.2013 05:45 -6,9 C 87 % 1021,6 hPa 0,0 l/m 0,2 km/h (0 Bft) O-NO 67 -8,7 C -7,2 C 0,0 km/h (0 Bft)
31.12.2013 05:50 -6,9 C 87 % 1021,6 hPa 0,0 l/m 0,2 km/h (0 Bft) O-NO 67 -8,7 C -7,1 C 0,0 km/h (0 Bft)
31.12.2013 05:55 -6,8 C 87 % 1021,6 hPa 0,0 l/m 0,2 km/h (0 Bft) O-NO 67 -8,6 C -7,1 C 0,0 km/h (0 Bft)
31.12.2013 06:00 -6,9 C 87 % 1021,6 hPa 0,0 l/m 0,2 km/h (0 Bft) O-NO 67 -8,7 C -7,1 C 0,0 km/h (0 Bft)
31.12.2013 06:05 -7,0 C 87 % 1021,4 hPa 0,0 l/m 0,0 km/h (0 Bft) O-NO 67 -8,8 C -7,1 C 0,0 km/h (0 Bft)
31.12.2013 06:10 -6,3 C 87 % 1021,4 hPa 0,0 l/m 1,1 km/h (1 Bft) O-NO 67 -8,1 C -7,0 C 5,0 km/h (1 Bft)
31.12.2013 06:15 -6,1 C 87 % 1021,4 hPa 0,0 l/m 1,9 km/h (1 Bft) O-NO 67 -7,9 C -6,6 C 0,0 km/h (0 Bft)
31.12.2013 06:20 -6,3 C 87 % 1021,4 hPa 0,0 l/m 1,4 km/h (1 Bft) O-NO 67 -8,1 C -6,5 C 2,7 km/h (1 Bft)
31.12.2013 06:25 -6,3 C 87 % 1021,3 hPa 0,0 l/m 0,3 km/h (0 Bft) O-NO 67 -8,1 C -6,5 C 0,0 km/h (0 Bft)
31.12.2013 06:30 -6,5 C 87 % 1021,3 hPa 0,0 l/m 0,6 km/h (0 Bft) O-NO 67 -8,3 C -6,7 C 2,7 km/h (1 Bft)
31.12.2013 06:35 -6,4 C 87 % 1021,3 hPa 0,0 l/m 0,6 km/h (0 Bft) O-NO 67 -8,2 C -6,6 C 0,0 km/h (0 Bft)
31.12.2013 06:40 -6,5 C 87 % 1021,3 hPa 0,0 l/m 0,8 km/h (0 Bft) O-NO 67 -8,3 C -6,5 C 0,0 km/h (0 Bft)
31.12.2013 06:45 -6,7 C 87 % 1021,4 hPa 0,0 l/m 0,2 km/h (0 Bft) O-NO 67 -8,5 C -6,6 C 0,0 km/h (0 Bft)
31.12.2013 06:50 -6,5 C 87 % 1021,4 hPa 0,0 l/m 0,3 km/h (0 Bft) O-NO 67 -8,3 C -6,6 C 0,0 km/h (0 Bft)
31.12.2013 06:55 -6,8 C 87 % 1021,4 hPa 0,0 l/m 0,3 km/h (0 Bft) O-NO 67 -8,6 C -6,7 C 0,0 km/h (0 Bft)
31.12.2013 07:00 -7,0 C 86 % 1021,4 hPa 0,0 l/m 0,0 km/h (0 Bft) O-NO 67 -8,9 C -6,9 C 0,0 km/h (0 Bft)
31.12.2013 07:05 -7,1 C 86 % 1021,1 hPa 0,0 l/m 0,0 km/h (0 Bft) O-NO 67 -9,0 C -7,0 C 0,0 km/h (0 Bft)
31.12.2013 07:10 -7,1 C 86 % 1021,1 hPa 0,0 l/m 0,3 km/h (0 Bft) O-NO 67 -9,0 C -7,2 C 1,8 km/h (1 Bft)
31.12.2013 07:15 -7,2 C 86 % 1021,1 hPa 0,0 l/m 0,3 km/h (0 Bft) O-NO 67 -9,1 C -7,1 C 0,0 km/h (0 Bft)
31.12.2013 07:20 -6,8 C 86 % 1021,1 hPa 0,0 l/m 0,0 km/h (0 Bft) O-NO 67 -8,7 C -7,2 C 0,0 km/h (0 Bft)
31.12.2013 07:25 -7,0 C 86 % 1021,1 hPa 0,0 l/m 0,0 km/h (0 Bft) O-NO 67 -8,9 C -7,2 C 0,0 km/h (0 Bft)
31.12.2013 07:30 -6,9 C 86 % 1021,1 hPa 0,0 l/m 0,0 km/h (0 Bft) O-NO 67 -8,8 C -7,2 C 0,0 km/h (0 Bft)
31.12.2013 07:35 -6,6 C 86 % 1021,1 hPa 0,0 l/m 0,3 km/h (0 Bft) O-NO 67 -8,5 C -7,2 C 2,3 km/h (1 Bft)
31.12.2013 07:40 -6,2 C 87 % 1021,1 hPa 0,0 l/m 0,5 km/h (0 Bft) O-NO 67 -8,0 C -6,9 C 0,0 km/h (0 Bft)
31.12.2013 07:45 -6,6 C 87 % 1021,0 hPa 0,0 l/m 0,5 km/h (0 Bft) O-NO 67 -8,4 C -6,7 C 0,0 km/h (0 Bft)
31.12.2013 07:50 -6,4 C 87 % 1021,0 hPa 0,0 l/m 0,2 km/h (0 Bft) O-NO 67 -8,2 C -6,9 C 2,6 km/h (1 Bft)
31.12.2013 07:55 -6,0 C 87 % 1021,0 hPa 0,0 l/m 0,2 km/h (0 Bft) O-NO 67 -7,8 C -6,9 C 0,0 km/h (0 Bft)
31.12.2013 08:00 -6,5 C 86 % 1021,0 hPa 0,0 l/m 0,2 km/h (0 Bft) O-NO 67 -8,4 C -7,0 C 0,0 km/h (0 Bft)
31.12.2013 08:05 -6,7 C 86 % 1021,0 hPa 0,0 l/m 0,0 km/h (0 Bft) O-NO 67 -8,6 C -7,0 C 0,0 km/h (0 Bft)
31.12.2013 08:10 -6,6 C 86 % 1021,0 hPa 0,0 l/m 0,0 km/h (0 Bft) O-NO 67 -8,5 C -7,1 C 0,0 km/h (0 Bft)
31.12.2013 08:15 -6,6 C 86 % 1021,0 hPa 0,0 l/m 0,0 km/h (0 Bft) O-NO 67 -8,5 C -7,0 C 0,0 km/h (0 Bft)
31.12.2013 08:20 -6,4 C 86 % 1021,0 hPa 0,0 l/m 0,2 km/h (0 Bft) O-NO 67 -8,3 C -7,0 C 2,7 km/h (1 Bft)
31.12.2013 08:25 -6,6 C 86 % 1021,1 hPa 0,0 l/m 0,3 km/h (0 Bft) O-NO 67 -8,5 C -7,0 C 0,0 km/h (0 Bft)
31.12.2013 08:30 -6,8 C 86 % 1021,1 hPa 0,0 l/m 0,3 km/h (0 Bft) O-NO 67 -8,7 C -7,0 C 0,0 km/h (0 Bft)
31.12.2013 08:35 -6,6 C 86 % 1021,1 hPa 0,0 l/m 0,5 km/h (0 Bft) O-NO 67 -8,5 C -7,0 C 1,9 km/h (1 Bft)
31.12.2013 08:40 -6,7 C 86 % 1021,1 hPa 0,0 l/m 0,6 km/h (0 Bft) O-NO 67 -8,6 C -7,0 C 1,6 km/h (1 Bft)
31.12.2013 08:45 -6,6 C 86 % 1020,9 hPa 0,0 l/m 0,6 km/h (0 Bft) O-NO 67 -8,5 C -7,0 C 2,3 km/h (1 Bft)
31.12.2013 08:50 -6,3 C 86 % 1020,9 hPa 0,0 l/m 0,8 km/h (0 Bft) O-NO 67 -8,2 C -6,7 C 0,0 km/h (0 Bft)
31.12.2013 08:55 -6,2 C 86 % 1020,9 hPa 0,0 l/m 0,8 km/h (0 Bft) O-NO 67 -8,1 C -6,7 C 1,6 km/h (1 Bft)
31.12.2013 09:00 -6,0 C 86 % 1020,9 hPa 0,0 l/m 0,5 km/h (0 Bft) O-NO 67 -8,0 C -6,4 C 1,9 km/h (1 Bft)
31.12.2013 09:05 -6,0 C 86 % 1021,2 hPa 0,0 l/m 0,3 km/h (0 Bft) O-NO 67 -8,0 C -6,4 C 0,0 km/h (0 Bft)
31.12.2013 09:10 -5,9 C 86 % 1021,2 hPa 0,0 l/m 0,2 km/h (0 Bft) O-NO 67 -7,9 C -6,3 C 0,0 km/h (0 Bft)
31.12.2013 09:15 -5,4 C 86 % 1021,2 hPa 0,0 l/m 0,2 km/h (0 Bft) O-NO 67 -7,4 C -6,1 C 0,0 km/h (0 Bft)
31.12.2013 09:20 -5,2 C 86 % 1021,2 hPa 0,0 l/m 0,3 km/h (0 Bft) O-NO 67 -7,2 C -5,9 C 2,7 km/h (1 Bft)
31.12.2013 09:25 -5,0 C 86 % 1021,1 hPa 0,0 l/m 0,2 km/h (0 Bft) O-NO 67 -7,0 C -5,7 C 1,8 km/h (1 Bft)
31.12.2013 09:30 -4,9 C 86 % 1021,1 hPa 0,0 l/m 0,2 km/h (0 Bft) O-NO 67 -6,9 C -5,5 C 0,0 km/h (0 Bft)
31.12.2013 09:35 -4,9 C 86 % 1021,1 hPa 0,0 l/m 0,2 km/h (0 Bft) O-NO 67 -6,9 C -5,4 C 2,1 km/h (1 Bft)
31.12.2013 09:40 -4,8 C 86 % 1021,1 hPa 0,0 l/m 0,2 km/h (0 Bft) O-NO 67 -6,8 C -5,3 C 0,0 km/h (0 Bft)
31.12.2013 09:45 -4,8 C 86 % 1020,9 hPa 0,0 l/m 0,2 km/h (0 Bft) O-NO 67 -6,8 C -5,3 C 0,0 km/h (0 Bft)
31.12.2013 09:50 -4,7 C 85 % 1020,9 hPa 0,0 l/m 0,0 km/h (0 Bft) O-NO 67 -6,8 C -5,2 C 0,0 km/h (0 Bft)
31.12.2013 09:55 -4,7 C 85 % 1020,9 hPa 0,0 l/m 0,2 km/h (0 Bft) O-NO 67 -6,8 C -5,2 C 0,0 km/h (0 Bft)
31.12.2013 10:00 -4,6 C 85 % 1020,9 hPa 0,0 l/m 0,8 km/h (0 Bft) O-NO 67 -6,7 C -5,1 C 0,0 km/h (0 Bft)
31.12.2013 10:05 -4,2 C 85 % 1020,9 hPa 0,0 l/m 1,4 km/h (1 Bft) O-NO 67 -6,3 C -5,0 C 3,2 km/h (1 Bft)
31.12.2013 10:10 -4,1 C 84 % 1020,9 hPa 0,0 l/m 1,8 km/h (1 Bft) O-NO 67 -6,4 C -4,8 C 0,0 km/h (0 Bft)
31.12.2013 10:15 -4,2 C 84 % 1020,9 hPa 0,0 l/m 1,3 km/h (1 Bft) O-NO 67 -6,5 C -4,7 C 0,0 km/h (0 Bft)
31.12.2013 10:20 -4,1 C 83 % 1020,9 hPa 0,0 l/m 0,3 km/h (0 Bft) O-NO 67 -6,5 C -4,6 C 0,0 km/h (0 Bft)
31.12.2013 10:25 -4,3 C 83 % 1020,6 hPa 0,0 l/m 0,0 km/h (0 Bft) O-NO 67 -6,7 C -4,6 C 0,0 km/h (0 Bft)
31.12.2013 10:30 -3,6 C 82 % 1020,6 hPa 0,0 l/m 1,3 km/h (1 Bft) O-NO 67 -6,2 C -4,6 C 2,9 km/h (1 Bft)
31.12.2013 10:35 -3,5 C 80 % 1020,6 hPa 0,0 l/m 1,9 km/h (1 Bft) O-NO 67 -6,4 C -4,5 C 3,1 km/h (1 Bft)
31.12.2013 10:40 -3,6 C 79 % 1020,6 hPa 0,0 l/m 1,8 km/h (1 Bft) O-NO 67 -6,7 C -4,4 C 0,0 km/h (0 Bft)
31.12.2013 10:45 -3,6 C 79 % 1020,6 hPa 0,0 l/m 0,8 km/h (0 Bft) O-NO 67 -6,7 C -4,3 C 0,0 km/h (0 Bft)
31.12.2013 10:50 -2,6 C 77 % 1020,6 hPa 0,0 l/m 0,8 km/h (0 Bft) O-NO 67 -6,1 C -4,2 C 2,1 km/h (1 Bft)
31.12.2013 10:55 -2,4 C 76 % 1020,6 hPa 0,0 l/m 1,6 km/h (1 Bft) O-NO 67 -6,0 C -4,0 C 0,0 km/h (0 Bft)
31.12.2013 11:00 -2,6 C 74 % 1020,6 hPa 0,0 l/m 1,0 km/h (0 Bft) O-NO 67 -6,6 C -3,8 C 0,0 km/h (0 Bft)
31.12.2013 11:05 -2,5 C 72 % 1020,2 hPa 0,0 l/m 0,3 km/h (0 Bft) O-NO 67 -6,8 C -3,8 C 0,0 km/h (0 Bft)
31.12.2013 11:10 -2,5 C 70 % 1020,2 hPa 0,0 l/m 0,0 km/h (0 Bft) O-NO 67 -7,2 C -3,6 C 0,0 km/h (0 Bft)
31.12.2013 11:15 -2,1 C 70 % 1020,2 hPa 0,0 l/m 0,0 km/h (0 Bft) O-NO 67 -6,8 C -3,5 C 0,0 km/h (0 Bft)
31.12.2013 11:20 -1,6 C 68 % 1020,2 hPa 0,0 l/m 0,0 km/h (0 Bft) O-NO 67 -6,7 C -3,4 C 0,0 km/h (0 Bft)
31.12.2013 11:25 -1,3 C 67 % 1019,9 hPa 0,0 l/m 0,0 km/h (0 Bft) O-NO 67 -6,6 C -3,2 C 0,0 km/h (0 Bft)
31.12.2013 11:30 -0,9 C 65 % 1019,9 hPa 0,0 l/m 0,5 km/h (0 Bft) O-NO 67 -6,6 C -2,9 C 3,9 km/h (1 Bft)
31.12.2013 11:35 -0,7 C 64 % 1019,9 hPa 0,0 l/m 1,8 km/h (1 Bft) O-NO 67 -6,6 C -2,8 C 3,1 km/h (1 Bft)
31.12.2013 11:40 -0,5 C 59 % 1019,9 hPa 0,0 l/m 2,9 km/h (1 Bft) O-NO 67 -7,5 C -3,0 C 3,4 km/h (1 Bft)
31.12.2013 11:45 -0,3 C 59 % 1019,6 hPa 0,0 l/m 2,9 km/h (1 Bft) O-NO 67 -7,3 C -2,9 C 3,5 km/h (1 Bft)
31.12.2013 11:50 0,0 C 60 % 1019,6 hPa 0,0 l/m 2,7 km/h (1 Bft) O-NO 67 -6,8 C -2,4 C 2,3 km/h (1 Bft)
31.12.2013 11:55 0,0 C 60 % 1019,6 hPa 0,0 l/m 1,9 km/h (1 Bft) O-NO 67 -6,8 C -1,8 C 0,0 km/h (0 Bft)
31.12.2013 12:00 -0,1 C 60 % 1019,6 hPa 0,0 l/m 0,8 km/h (0 Bft) O-NO 67 -6,9 C -1,7 C 1,6 km/h (1 Bft)
31.12.2013 12:05 -0,1 C 60 % 1019,3 hPa 0,0 l/m 0,8 km/h (0 Bft) O-NO 67 -6,9 C -1,8 C 2,1 km/h (1 Bft)
31.12.2013 12:10 0,4 C 59 % 1019,3 hPa 0,0 l/m 2,1 km/h (1 Bft) O-NO 67 -6,7 C -1,5 C 2,7 km/h (1 Bft)
31.12.2013 12:15 0,1 C 59 % 1019,3 hPa 0,0 l/m 1,8 km/h (1 Bft) O-NO 67 -6,9 C -1,4 C 0,0 km/h (0 Bft)
31.12.2013 12:20 0,4 C 59 % 1019,3 hPa 0,0 l/m 0,8 km/h (0 Bft) O-NO 67 -6,7 C -1,2 C 2,4 km/h (1 Bft)
31.12.2013 12:25 0,8 C 59 % 1019,1 hPa 0,0 l/m 1,6 km/h (1 Bft) O-NO 67 -6,3 C -0,9 C 3,4 km/h (1 Bft)
31.12.2013 12:30 1,3 C 58 % 1019,1 hPa 0,0 l/m 3,2 km/h (1 Bft) O-NO 67 -6,0 C -1,0 C 3,1 km/h (1 Bft)
31.12.2013 12:35 1,2 C 57 % 1019,1 hPa 0,0 l/m 2,9 km/h (1 Bft) O-NO 67 -6,4 C -0,6 C 2,6 km/h (1 Bft)
31.12.2013 12:40 1,3 C 57 % 1019,1 hPa 0,0 l/m 2,3 km/h (1 Bft) O-NO 67 -6,3 C 0,0 C 2,6 km/h (1 Bft)
31.12.2013 12:45 1,4 C 57 % 1018,7 hPa 0,0 l/m 1,6 km/h (1 Bft) O-NO 67 -6,2 C 0,2 C 0,0 km/h (0 Bft)
31.12.2013 12:48 1,3 C 57 % 1018,7 hPa 0,0 l/m 0,6 km/h (0 Bft) O-NO 67 -6,3 C 0,2 C 2,6 km/h (1 Bft)
31.12.2013 12:50 1,3 C 57 % 1018,7 hPa 0,0 l/m 0,6 km/h (0 Bft) O-NO 67 -6,3 C 0,2 C 2,6 km/h (1 Bft)
31.12.2013 12:55 1,5 C 56 % 1018,7 hPa 0,0 l/m 0,8 km/h (0 Bft) O-NO 67 -6,3 C 0,3 C 1,8 km/h (1 Bft)
31.12.2013 13:00 1,5 C 56 % 1018,7 hPa 0,0 l/m 1,6 km/h (1 Bft) O-NO 67 -6,3 C 0,4 C 2,3 km/h (1 Bft)
31.12.2013 13:05 1,6 C 55 % 1018,7 hPa 0,0 l/m 1,0 km/h (0 Bft) O-NO 67 -6,4 C 0,5 C 0,0 km/h (0 Bft)
31.12.2013 13:10 1,6 C 55 % 1018,7 hPa 0,0 l/m 0,3 km/h (0 Bft) O-NO 67 -6,4 C 0,5 C 0,0 km/h (0 Bft)
31.12.2013 13:15 1,6 C 55 % 1018,7 hPa 0,0 l/m 0,6 km/h (0 Bft) O-NO 67 -6,4 C 0,6 C 0,0 km/h (0 Bft)
31.12.2013 13:20 1,6 C 54 % 1018,7 hPa 0,0 l/m 1,9 km/h (1 Bft) O-NO 67 -6,7 C 1,0 C 3,2 km/h (1 Bft)
31.12.2013 13:25 1,6 C 55 % 1018,8 hPa 0,0 l/m 2,7 km/h (1 Bft) O-NO 67 -6,4 C 1,1 C 2,7 km/h (1 Bft)
31.12.2013 13:30 1,6 C 55 % 1018,8 hPa 0,0 l/m 2,6 km/h (1 Bft) O-NO 67 -6,4 C 1,4 C 1,9 km/h (1 Bft)
31.12.2013 13:35 1,7 C 55 % 1018,8 hPa 0,0 l/m 1,9 km/h (1 Bft) O-NO 67 -6,4 C 1,5 C 3,7 km/h (1 Bft)
31.12.2013 13:40 1,9 C 56 % 1018,8 hPa 0,0 l/m 2,6 km/h (1 Bft) O-NO 67 -5,9 C 1,6 C 4,0 km/h (1 Bft)
31.12.2013 13:45 2,0 C 55 % 1018,6 hPa 0,0 l/m 3,4 km/h (1 Bft) O-NO 67 -6,1 C 1,3 C 2,4 km/h (1 Bft)
31.12.2013 13:50 1,9 C 56 % 1018,6 hPa 0,0 l/m 1,9 km/h (1 Bft) O-NO 67 -5,9 C 4,5 C 0,0 km/h (0 Bft)
31.12.2013 13:55 1,8 C 56 % 1018,6 hPa 0,0 l/m 1,0 km/h (0 Bft) O-NO 67 -6,0 C 6,3 C 2,3 km/h (1 Bft)
31.12.2013 14:00 2,1 C 55 % 1018,6 hPa 0,0 l/m 1,3 km/h (1 Bft) O-NO 67 -6,0 C 7,9 C 0,0 km/h (0 Bft)
31.12.2013 14:05 2,7 C 54 % 1018,6 hPa 0,0 l/m 1,4 km/h (1 Bft) O-NO 67 -5,7 C 8,6 C 0,0 km/h (0 Bft)
31.12.2013 14:10 3,4 C 50 % 1018,6 hPa 0,0 l/m 0,5 km/h (0 Bft) O-SO 112 -6,0 C 9,5 C 0,0 km/h (0 Bft)
31.12.2013 14:15 3,0 C 51 % 1018,6 hPa 0,0 l/m 1,0 km/h (0 Bft) NO 45 -6,1 C 9,7 C 2,9 km/h (1 Bft)
31.12.2013 14:20 2,7 C 53 % 1018,6 hPa 0,0 l/m 1,3 km/h (1 Bft) NO 45 -5,9 C 9,7 C 3,1 km/h (1 Bft)
31.12.2013 14:25 2,6 C 52 % 1018,6 hPa 0,0 l/m 1,4 km/h (1 Bft) O 90 -6,2 C 8,9 C 2,9 km/h (1 Bft)
31.12.2013 14:30 2,4 C 51 % 1018,6 hPa 0,0 l/m 2,3 km/h (1 Bft) O 90 -6,7 C 6,9 C 2,1 km/h (1 Bft)
31.12.2013 14:35 2,5 C 49 % 1018,6 hPa 0,0 l/m 2,7 km/h (1 Bft) O-NO 67 -7,1 C 6,0 C 2,9 km/h (1 Bft)
31.12.2013 14:40 2,4 C 48 % 1018,6 hPa 0,0 l/m 2,1 km/h (1 Bft) NO 45 -7,5 C 6,0 C 2,7 km/h (1 Bft)
31.12.2013 14:45 2,3 C 49 % 1018,5 hPa 0,0 l/m 1,8 km/h (1 Bft) O 90 -7,3 C 6,8 C 0,0 km/h (0 Bft)
31.12.2013 14:50 2,3 C 49 % 1018,5 hPa 0,0 l/m 1,8 km/h (1 Bft) O 90 -7,3 C 7,8 C 2,9 km/h (1 Bft)
31.12.2013 14:55 2,3 C 49 % 1018,5 hPa 0,0 l/m 2,3 km/h (1 Bft) O-SO 112 -7,3 C 7,6 C 4,0 km/h (1 Bft)
31.12.2013 15:00 1,6 C 49 % 1018,5 hPa 0,0 l/m 2,9 km/h (1 Bft) NO 45 -7,9 C 6,4 C 1,9 km/h (1 Bft)
31.12.2013 15:05 1,9 C 51 % 1018,6 hPa 0,0 l/m 2,3 km/h (1 Bft) O 90 -7,1 C 6,1 C 1,8 km/h (1 Bft)
31.12.2013 15:10 1,9 C 51 % 1018,6 hPa 0,0 l/m 1,1 km/h (1 Bft) O 90 -7,1 C 4,9 C 2,3 km/h (1 Bft)
31.12.2013 15:15 2,0 C 51 % 1018,6 hPa 0,0 l/m 1,3 km/h (1 Bft) NO 45 -7,1 C 3,8 C 2,9 km/h (1 Bft)
31.12.2013 15:20 1,9 C 51 % 1018,6 hPa 0,0 l/m 2,3 km/h (1 Bft) O 90 -7,1 C 2,6 C 1,9 km/h (1 Bft)
31.12.2013 15:25 1,8 C 52 % 1018,5 hPa 0,0 l/m 2,7 km/h (1 Bft) NO 45 -7,0 C 1,9 C 4,7 km/h (1 Bft)
31.12.2013 15:30 1,7 C 52 % 1018,5 hPa 0,0 l/m 3,9 km/h (1 Bft) NO 45 -7,1 C 0,7 C 4,8 km/h (1 Bft)
31.12.2013 15:35 1,6 C 53 % 1018,5 hPa 0,0 l/m 4,2 km/h (1 Bft) O-NO 67 -6,9 C 0,2 C 5,5 km/h (1 Bft)
31.12.2013 15:40 1,5 C 53 % 1018,5 hPa 0,0 l/m 4,2 km/h (1 Bft) NO 45 -7,0 C -0,1 C 5,1 km/h (1 Bft)
31.12.2013 15:45 1,3 C 53 % 1018,2 hPa 0,0 l/m 4,2 km/h (1 Bft) O-NO 67 -7,2 C -0,2 C 4,3 km/h (1 Bft)
31.12.2013 15:50 1,1 C 54 % 1018,2 hPa 0,0 l/m 3,7 km/h (1 Bft) NO 45 -7,1 C -0,1 C 2,9 km/h (1 Bft)
31.12.2013 15:55 1,0 C 54 % 1018,2 hPa 0,0 l/m 3,1 km/h (1 Bft) NO 45 -7,2 C 0,1 C 1,8 km/h (1 Bft)
31.12.2013 16:00 0,7 C 54 % 1018,2 hPa 0,0 l/m 2,4 km/h (1 Bft) NO 45 -7,5 C 0,1 C 2,1 km/h (1 Bft)
31.12.2013 16:05 0,6 C 55 % 1018,1 hPa 0,0 l/m 1,8 km/h (1 Bft) O-NO 67 -7,4 C -0,2 C 2,1 km/h (1 Bft)
31.12.2013 16:10 -0,5 C 55 % 1018,1 hPa 0,0 l/m 1,0 km/h (0 Bft) NO 45 -8,4 C -0,7 C 0,0 km/h (0 Bft)
31.12.2013 16:15 -1,3 C 56 % 1018,1 hPa 0,0 l/m 0,3 km/h (0 Bft) NO 45 -8,9 C -1,1 C 0,0 km/h (0 Bft)
31.12.2013 16:20 -1,8 C 57 % 1018,1 hPa 0,0 l/m 0,0 km/h (0 Bft) O-SO 112 -9,2 C -1,9 C 0,0 km/h (0 Bft)
31.12.2013 16:25 -2,3 C 58 % 1018,0 hPa 0,0 l/m 0,0 km/h (0 Bft) O-NO 67 -9,4 C -2,4 C 0,0 km/h (0 Bft)
31.12.2013 16:30 -1,4 C 59 % 1018,0 hPa 0,0 l/m 0,6 km/h (0 Bft) NO 45 -8,4 C -2,8 C 3,2 km/h (1 Bft)
31.12.2013 16:35 -1,0 C 59 % 1018,0 hPa 0,0 l/m 1,8 km/h (1 Bft) NO 45 -8,0 C -2,9 C 1,8 km/h (1 Bft)
31.12.2013 16:40 -1,8 C 58 % 1018,0 hPa 0,0 l/m 1,9 km/h (1 Bft) NO 45 -8,9 C -2,9 C 0,0 km/h (0 Bft)
31.12.2013 16:45 -1,7 C 58 % 1017,6 hPa 0,0 l/m 1,1 km/h (1 Bft) O-SO 112 -8,9 C -3,1 C 2,1 km/h (1 Bft)
31.12.2013 16:50 -1,8 C 58 % 1017,6 hPa 0,0 l/m 0,3 km/h (0 Bft) O-NO 67 -8,9 C -3,5 C 0,0 km/h (0 Bft)
31.12.2013 16:55 -2,3 C 59 % 1017,6 hPa 0,0 l/m 0,3 km/h (0 Bft) NO 45 -9,2 C -3,8 C 0,0 km/h (0 Bft)
31.12.2013 17:00 -2,8 C 59 % 1017,6 hPa 0,0 l/m 0,6 km/h (0 Bft) O-SO 112 -9,7 C -3,8 C 0,0 km/h (0 Bft)
31.12.2013 17:05 -3,3 C 59 % 1017,5 hPa 0,0 l/m 0,6 km/h (0 Bft) NO 45 -10,1 C -4,0 C 0,0 km/h (0 Bft)
31.12.2013 17:10 -4,0 C 59 % 1017,5 hPa 0,0 l/m 0,0 km/h (0 Bft) NO 45 -10,8 C -4,4 C 0,0 km/h (0 Bft)
31.12.2013 17:15 -4,3 C 59 % 1017,5 hPa 0,0 l/m 0,0 km/h (0 Bft) NO 45 -11,1 C -4,7 C 0,0 km/h (0 Bft)
31.12.2013 17:20 -4,5 C 61 % 1017,5 hPa 0,0 l/m 0,0 km/h (0 Bft) NO 45 -10,9 C -4,8 C 0,0 km/h (0 Bft)
31.12.2013 17:25 -4,4 C 62 % 1017,4 hPa 0,0 l/m 0,0 km/h (0 Bft) NO 45 -10,6 C -5,1 C 0,0 km/h (0 Bft)
31.12.2013 17:30 -4,7 C 63 % 1017,4 hPa 0,0 l/m 0,2 km/h (0 Bft) NO 45 -10,6 C -4,9 C 0,0 km/h (0 Bft)
31.12.2013 17:35 -4,8 C 63 % 1017,4 hPa 0,0 l/m 0,2 km/h (0 Bft) O-SO 112 -10,7 C -4,8 C 0,0 km/h (0 Bft)
31.12.2013 17:40 -5,0 C 64 % 1017,4 hPa 0,0 l/m 0,0 km/h (0 Bft) O 90 -10,7 C -5,0 C 0,0 km/h (0 Bft)
31.12.2013 17:45 -5,1 C 64 % 1017,1 hPa 0,0 l/m 0,0 km/h (0 Bft) O-SO 112 -10,8 C -5,2 C 0,0 km/h (0 Bft)
31.12.2013 17:50 -5,0 C 66 % 1017,1 hPa 0,0 l/m 0,0 km/h (0 Bft) O 90 -10,3 C -5,3 C 0,0 km/h (0 Bft)
31.12.2013 17:55 -4,6 C 66 % 1017,1 hPa 0,0 l/m 0,2 km/h (0 Bft) O-NO 67 -10,0 C -5,6 C 1,6 km/h (1 Bft)
31.12.2013 18:00 -4,9 C 66 % 1017,1 hPa 0,0 l/m 0,2 km/h (0 Bft) O-SO 112 -10,2 C -5,6 C 0,0 km/h (0 Bft)
31.12.2013 18:05 -4,8 C 67 % 1016,8 hPa 0,0 l/m 0,2 km/h (0 Bft) NO 45 -10,0 C -5,7 C 0,0 km/h (0 Bft)
31.12.2013 18:10 -5,0 C 67 % 1016,8 hPa 0,0 l/m 0,5 km/h (0 Bft) N-NO 22 -10,2 C -5,4 C 2,1 km/h (1 Bft)
31.12.2013 18:15 -5,1 C 68 % 1016,8 hPa 0,0 l/m 0,8 km/h (0 Bft) S 180 -10,1 C -5,2 C 4,2 km/h (1 Bft)
31.12.2013 18:20 -5,2 C 68 % 1016,8 hPa 0,0 l/m 0,8 km/h (0 Bft) NO 45 -10,2 C -5,3 C 0,0 km/h (0 Bft)
31.12.2013 18:25 -5,0 C 69 % 1016,6 hPa 0,0 l/m 0,6 km/h (0 Bft) NO 45 -9,8 C -5,4 C 0,0 km/h (0 Bft)
31.12.2013 18:30 -4,6 C 69 % 1016,6 hPa 0,0 l/m 0,6 km/h (0 Bft) NO 45 -9,4 C -5,5 C 4,7 km/h (1 Bft)
31.12.2013 18:35 -4,1 C 68 % 1016,6 hPa 0,0 l/m 1,0 km/h (0 Bft) SO 135 -9,1 C -5,4 C 2,3 km/h (1 Bft)
31.12.2013 18:40 -5,0 C 68 % 1016,6 hPa 0,0 l/m 0,8 km/h (0 Bft) SO 135 -10,0 C -5,5 C 0,0 km/h (0 Bft)
31.12.2013 18:45 -5,6 C 68 % 1016,4 hPa 0,0 l/m 0,3 km/h (0 Bft) SO 135 -10,5 C -5,7 C 0,0 km/h (0 Bft)
31.12.2013 18:48 -5,9 C 68 % 1016,4 hPa 0,0 l/m 0,0 km/h (0 Bft) O 90 -10,8 C -6,0 C 0,0 km/h (0 Bft)
31.12.2013 18:50 -5,9 C 68 % 1016,4 hPa 0,0 l/m 0,0 km/h (0 Bft) O 90 -10,8 C -6,0 C 0,0 km/h (0 Bft)
31.12.2013 18:55 -6,0 C 68 % 1016,4 hPa 0,0 l/m 0,0 km/h (0 Bft) O 90 -10,9 C -6,2 C 0,0 km/h (0 Bft)
31.12.2013 19:00 -6,0 C 69 % 1016,4 hPa 0,0 l/m 0,0 km/h (0 Bft) O 90 -10,7 C -6,2 C 0,0 km/h (0 Bft)
31.12.2013 19:05 -6,0 C 69 % 1015,9 hPa 0,0 l/m 0,0 km/h (0 Bft) O-SO 112 -10,7 C -6,1 C 0,0 km/h (0 Bft)
31.12.2013 19:10 -5,7 C 70 % 1015,9 hPa 0,0 l/m 0,3 km/h (0 Bft) O-NO 67 -10,3 C -6,2 C 1,9 km/h (1 Bft)
31.12.2013 19:15 -5,6 C 71 % 1015,9 hPa 0,0 l/m 0,3 km/h (0 Bft) NO 45 -10,0 C -6,1 C 0,0 km/h (0 Bft)
31.12.2013 19:20 -5,9 C 71 % 1015,9 hPa 0,0 l/m 0,5 km/h (0 Bft) NO 45 -10,3 C -5,8 C 2,7 km/h (1 Bft)
31.12.2013 19:25 -5,7 C 71 % 1015,5 hPa 0,0 l/m 1,1 km/h (1 Bft) O-NO 67 -10,1 C -5,7 C 2,1 km/h (1 Bft)
31.12.2013 19:30 -5,5 C 72 % 1015,5 hPa 0,0 l/m 0,6 km/h (0 Bft) O-NO 67 -9,7 C -5,7 C 0,0 km/h (0 Bft)
31.12.2013 19:35 -5,5 C 71 % 1015,5 hPa 0,0 l/m 0,2 km/h (0 Bft) O-NO 67 -9,9 C -5,7 C 1,8 km/h (1 Bft)
31.12.2013 19:40 -5,2 C 72 % 1015,5 hPa 0,0 l/m 0,2 km/h (0 Bft) O-NO 67 -9,4 C -5,8 C 0,0 km/h (0 Bft)
31.12.2013 19:45 -5,6 C 71 % 1015,5 hPa 0,0 l/m 0,2 km/h (0 Bft) O-NO 67 -10,0 C -5,9 C 0,0 km/h (0 Bft)
31.12.2013 19:50 -5,9 C 71 % 1015,5 hPa 0,0 l/m 0,0 km/h (0 Bft) O-NO 67 -10,3 C -6,2 C 0,0 km/h (0 Bft)
31.12.2013 19:55 -5,9 C 71 % 1015,5 hPa 0,0 l/m 0,0 km/h (0 Bft) O-NO 67 -10,3 C -6,2 C 0,0 km/h (0 Bft)
31.12.2013 20:00 -6,3 C 71 % 1015,5 hPa 0,0 l/m 0,2 km/h (0 Bft) NO 45 -10,7 C -6,3 C 0,0 km/h (0 Bft)
31.12.2013 20:05 -6,4 C 71 % 1015,5 hPa 0,0 l/m 0,2 km/h (0 Bft) NO 45 -10,8 C -6,5 C 0,0 km/h (0 Bft)
31.12.2013 20:10 -6,6 C 71 % 1015,5 hPa 0,0 l/m 0,0 km/h (0 Bft) NO 45 -11,0 C -6,5 C 0,0 km/h (0 Bft)
31.12.2013 20:15 -6,4 C 72 % 1015,5 hPa 0,0 l/m 0,0 km/h (0 Bft) NO 45 -10,6 C -6,5 C 0,0 km/h (0 Bft)
31.12.2013 20:20 -6,2 C 72 % 1015,5 hPa 0,0 l/m 0,2 km/h (0 Bft) S-SO 157 -10,4 C -6,3 C 0,0 km/h (0 Bft)
31.12.2013 20:25 -6,2 C 72 % 1015,4 hPa 0,0 l/m 0,2 km/h (0 Bft) S-SO 157 -10,4 C -6,2 C 0,0 km/h (0 Bft)
31.12.2013 20:30 -5,9 C 72 % 1015,4 hPa 0,0 l/m 0,2 km/h (0 Bft) SO 135 -10,1 C -6,2 C 2,3 km/h (1 Bft)
31.12.2013 20:35 -5,8 C 72 % 1015,4 hPa 0,0 l/m 0,5 km/h (0 Bft) S-SO 157 -10,0 C -6,0 C 2,7 km/h (1 Bft)
31.12.2013 20:40 -4,4 C 71 % 1015,4 hPa 0,0 l/m 2,6 km/h (1 Bft) O-SO 112 -8,8 C -6,2 C 5,8 km/h (2 Bft)
31.12.2013 20:45 -3,3 C 68 % 1015,4 hPa 0,0 l/m 3,9 km/h (1 Bft) N 360 -8,3 C -6,4 C 0,0 km/h (0 Bft)
31.12.2013 20:50 -4,6 C 65 % 1015,4 hPa 0,0 l/m 2,7 km/h (1 Bft) O-NO 67 -10,2 C -5,3 C 7,4 km/h (2 Bft)
31.12.2013 20:55 -3,3 C 65 % 1015,4 hPa 0,0 l/m 1,4 km/h (1 Bft) O 90 -8,9 C -4,5 C 0,0 km/h (0 Bft)
31.12.2013 21:00 -4,1 C 63 % 1015,4 hPa 0,0 l/m 1,6 km/h (1 Bft) O-SO 112 -10,1 C -4,5 C 0,0 km/h (0 Bft)
31.12.2013 21:05 -2,3 C 59 % 1015,5 hPa 0,0 l/m 2,3 km/h (1 Bft) O-SO 112 -9,2 C -4,4 C 2,7 km/h (1 Bft)
31.12.2013 21:10 -2,6 C 58 % 1015,5 hPa 0,0 l/m 3,4 km/h (1 Bft) O 90 -9,7 C -4,7 C 2,6 km/h (1 Bft)
31.12.2013 21:15 -3,7 C 58 % 1015,5 hPa 0,0 l/m 2,4 km/h (1 Bft) S 180 -10,7 C -3,8 C 3,2 km/h (1 Bft)
31.12.2013 21:20 -3,5 C 59 % 1015,5 hPa 0,0 l/m 1,8 km/h (1 Bft) O-SO 112 -10,3 C -3,6 C 2,6 km/h (1 Bft)
31.12.2013 21:25 -2,7 C 58 % 1015,6 hPa 0,0 l/m 2,6 km/h (1 Bft) O-SO 112 -9,8 C -4,2 C 3,1 km/h (1 Bft)
31.12.2013 21:30 -4,4 C 58 % 1015,6 hPa 0,0 l/m 1,8 km/h (1 Bft) SO 135 -11,4 C -3,9 C 0,0 km/h (0 Bft)
31.12.2013 21:35 -4,5 C 59 % 1015,6 hPa 0,0 l/m 1,0 km/h (0 Bft) SO 135 -11,3 C -4,3 C 3,1 km/h (1 Bft)
31.12.2013 21:40 -5,0 C 61 % 1015,6 hPa 0,0 l/m 1,1 km/h (1 Bft) O-SO 112 -11,3 C -4,5 C 0,0 km/h (0 Bft)
31.12.2013 21:45 -5,2 C 63 % 1015,6 hPa 0,0 l/m 1,3 km/h (1 Bft) S-SO 157 -11,1 C -4,6 C 0,0 km/h (0 Bft)
31.12.2013 21:50 -5,0 C 63 % 1015,6 hPa 0,0 l/m 0,8 km/h (0 Bft) NO 45 -10,9 C -5,0 C 1,9 km/h (1 Bft)
31.12.2013 21:55 -5,1 C 64 % 1015,6 hPa 0,0 l/m 1,0 km/h (0 Bft) N 360 -10,8 C -5,0 C 0,0 km/h (0 Bft)
31.12.2013 22:00 -5,0 C 64 % 1015,6 hPa 0,0 l/m 0,5 km/h (0 Bft) N-NO 22 -10,7 C -5,1 C 0,0 km/h (0 Bft)
31.12.2013 22:05 -5,4 C 64 % 1015,5 hPa 0,0 l/m 0,0 km/h (0 Bft) N 360 -11,1 C -5,3 C 0,0 km/h (0 Bft)
31.12.2013 22:10 -5,9 C 64 % 1015,5 hPa 0,0 l/m 0,0 km/h (0 Bft) N 360 -11,6 C -5,7 C 0,0 km/h (0 Bft)
31.12.2013 22:15 -5,9 C 64 % 1015,5 hPa 0,0 l/m 0,0 km/h (0 Bft) N 360 -11,6 C -6,0 C 0,0 km/h (0 Bft)
31.12.2013 22:20 -6,1 C 65 % 1015,5 hPa 0,0 l/m 0,0 km/h (0 Bft) N 360 -11,6 C -6,3 C 0,0 km/h (0 Bft)
31.12.2013 22:25 -6,0 C 65 % 1015,4 hPa 0,0 l/m 0,0 km/h (0 Bft) N-NO 22 -11,5 C -6,3 C 0,0 km/h (0 Bft)
31.12.2013 22:30 -5,6 C 66 % 1015,4 hPa 0,0 l/m 0,8 km/h (0 Bft) N-NO 22 -10,9 C -6,2 C 3,5 km/h (1 Bft)
31.12.2013 22:35 -5,7 C 66 % 1015,4 hPa 0,0 l/m 0,8 km/h (0 Bft) NO 45 -11,0 C -6,0 C 0,0 km/h (0 Bft)
31.12.2013 22:40 -5,6 C 66 % 1015,4 hPa 0,0 l/m 0,6 km/h (0 Bft) N-NW 337 -10,9 C -5,9 C 2,9 km/h (1 Bft)
31.12.2013 22:45 -5,7 C 66 % 1015,5 hPa 0,0 l/m 0,5 km/h (0 Bft) N-NW 337 -11,0 C -5,8 C 0,0 km/h (0 Bft)
31.12.2013 22:50 -6,0 C 66 % 1015,5 hPa 0,0 l/m 0,6 km/h (0 Bft) N 360 -11,3 C -6,0 C 0,0 km/h (0 Bft)
31.12.2013 22:55 -6,2 C 66 % 1015,5 hPa 0,0 l/m 0,3 km/h (0 Bft) N 360 -11,5 C -6,1 C 0,0 km/h (0 Bft)
31.12.2013 23:00 -6,2 C 67 % 1015,5 hPa 0,0 l/m 0,2 km/h (0 Bft) NO 45 -11,3 C -6,1 C 0,0 km/h (0 Bft)
31.12.2013 23:05 -5,9 C 67 % 1015,4 hPa 0,0 l/m 0,2 km/h (0 Bft) NO 45 -11,0 C -6,1 C 0,0 km/h (0 Bft)
31.12.2013 23:10 -6,2 C 67 % 1015,4 hPa 0,0 l/m 0,0 km/h (0 Bft) NO 45 -11,3 C -6,2 C 0,0 km/h (0 Bft)
31.12.2013 23:15 -6,3 C 67 % 1015,4 hPa 0,0 l/m 0,0 km/h (0 Bft) NO 45 -11,4 C -6,4 C 0,0 km/h (0 Bft)
31.12.2013 23:20 -6,5 C 67 % 1015,4 hPa 0,0 l/m 0,0 km/h (0 Bft) N 360 -11,6 C -6,5 C 0,0 km/h (0 Bft)
31.12.2013 23:25 -6,3 C 67 % 1015,2 hPa 0,0 l/m 0,2 km/h (0 Bft) N 360 -11,4 C -6,5 C 0,0 km/h (0 Bft)
31.12.2013 23:30 -5,6 C 68 % 1015,2 hPa 0,0 l/m 1,3 km/h (1 Bft) NO 45 -10,5 C -6,2 C 3,4 km/h (1 Bft)
31.12.2013 23:35 -5,0 C 68 % 1015,2 hPa 0,0 l/m 1,6 km/h (1 Bft) O-NO 67 -10,0 C -5,9 C 0,0 km/h (0 Bft)
31.12.2013 23:40 -5,6 C 67 % 1015,2 hPa 0,0 l/m 0,8 km/h (0 Bft) O-NO 67 -10,7 C -5,7 C 0,0 km/h (0 Bft)
31.12.2013 23:45 -5,8 C 67 % 1015,1 hPa 0,0 l/m 0,0 km/h (0 Bft) O-NO 67 -10,9 C -5,7 C 0,0 km/h (0 Bft)
31.12.2013 23:50 -5,9 C 67 % 1015,1 hPa 0,0 l/m 0,3 km/h (0 Bft) O-NO 67 -11,0 C -5,7 C 0,0 km/h (0 Bft)
31.12.2013 23:55 -5,8 C 67 % 1015,1 hPa 0,0 l/m 0,3 km/h (0 Bft) O-NO 67 -10,9 C -5,8 C 0,0 km/h (0 Bft)
_ Min-Zeit 03:15 14:40 23:55 - 23:45 - - 23:20 03:20 23:55
Minimum _ -7,7 C 48 % 1015,1 hPa - 0,0 km/h (0 Bft) - - -11,6 C -7,8 C 0,0 km/h (0 Bft)
_ Max-Zeit 14:10 00:40 00:20 23:55 15:45 - - 14:05 14:20 20:50
Maximum _ 3,4 C 89 % 1023,8 hPa 0,0 l/m 4,2 km/h
O-NO (1 Bft)
- - -5,7 C 9,7 C 7,4 km/h
O-NO (2 Bft)
Durchschnitt _ -4,3 C 73 % 1019,4 hPa #0,0 l/m 0,8 km/h (0 Bft) O-NO - -8,6 C -4,5 C 1,1 km/h (1 Bft)